Flag for U.S.A. Weather past 2 weeks in Pasadena, Texas, U.S.A.

Now
77 °F

Sunny.


Feels Like: 79 °F
Forecast: 59 / 84 °F
Wind: No wind

Location: Houston / Ellington

Current Time: Oct 25, 2014 at 1:24:16 PM

Latest Report: Oct 25, 2014 at 12:50 PM


Visibility: 7 mi

Pressure: 30.18 "Hg

Humidity: 51%

Dew point: 57 °F

Location of PasadenaLocation

Historic Weather in Pasadena — Graph

°F

Pasadena temperature yesterday

Maximum temperature yesterday: 77 °F (at 2:50 PM)
Minimum temperature yesterday: 59 °F (at 6:50 AM)
Average temperature yesterday: 68 °F

Past Weeks' High & Low Weather Summary

 TemperatureHumidityPressure
High88 °F (Oct 10, 11:50 AM)100% (Oct 11, 1:50 PM)30.20 "Hg (Oct 11, 1:50 PM)
Low57 °F (Oct 14, 5:50 AM)28% (Oct 15, 5:50 PM)29.72 "Hg (Oct 13, 7:50 AM)
Average72 °F70%30.02 "Hg
* Reported Oct 10 11:50 AM — Oct 25 11:50 AM, Pasadena, Weather by CustomWeather, © 2014

Note: Actual official high and low records may vary slightly from our data, if they occured in-between our weather recording intervals... More about our weather records

Advertising

Pasadena weather history for previous 24 hours

 ConditionsComfort  
Time TempWeatherWind HumidityBarometerVisibility
11:50 AM
Oct 25
75 °FSunny.3 mph54%30.20 "Hg7 mi
10:50 AM72 °FSunny.No wind61%30.20 "Hg7 mi
8:50 AM61 °FSunny.No wind88%30.18 "Hg10 mi
7:50 AM61 °FClear.No wind83%30.17 "Hg7 mi
6:50 AM59 °FClear.No wind88%30.15 "Hg10 mi
5:50 AM59 °FClear.No wind88%30.14 "Hg10 mi
3:50 AM63 °FClear.No wind77%30.13 "Hg10 mi
2:50 AM63 °FClear.No wind77%30.13 "Hg10 mi
1:50 AM64 °FClear.No wind78%30.13 "Hg10 mi
12:50 AM64 °FClear.No wind78%30.14 "Hg10 mi
11:50 PM
Oct 24
68 °FClear.No wind69%30.15 "Hg10 mi
10:50 PM70 °FClear.No wind64%30.16 "Hg10 mi
9:50 PM70 °FClear.No wind64%30.15 "Hg10 mi
8:50 PM70 °FClear.No wind60%30.14 "Hg10 mi
7:50 PM72 °FClear.No wind57%30.12 "Hg10 mi
6:50 PM75 °FSunny.5 mph47%30.10 "Hg10 mi
5:50 PM77 °FSunny.5 mph42%30.10 "Hg10 mi
4:50 PM77 °FSunny.7 mph42%30.10 "Hg10 mi
3:50 PM77 °FSunny.3 mph39%30.10 "Hg10 mi
2:50 PM77 °FSunny.5 mph39%30.12 "Hg10 mi
1:50 PM73 °FSunny.8 mph44%30.13 "Hg10 mi
Weather by CustomWeather, © 2014

See weather overviewHow to use our weather pages